Dickinson, ND

12:07 PM MDT on June 25, 2017 (GMT -0600)
Dickinson Municipal

Weather History for KDIK - November, 2012

Change the Weather History Date:

Thursday, November 29, 2012

  Actual Average Record
Temperature  
Mean Temperature 19 °F 23 °F  
Max Temperature 22 °F 33 °F 62 °F (1909)
Min Temperature 16 °F 13 °F -23 °F (1896)
Degree Days  
Heating Degree Days 46 42  
Month to date heating degree days 948 1022  
Since 1 July heating degree days 1885 2033  
Cooling Degree Days 0 0  
Month to date cooling degree days 0 0  
Year to date cooling degree days 591 419  
Moisture  
Dew Point 16 °F    
Average Humidity 88    
Maximum Humidity 92    
Minimum Humidity 84    
Precipitation  
Precipitation 0.00 in 0.01 in 0.10 in (1925)
Month to date precipitation 0.22 0.53  
Year to date precipitation 10.15 15.52  
Sea Level Pressure  
Sea Level Pressure 30.01 in    
Wind  
Wind Speed 10 mph (ESE)    
Max Wind Speed 17 mph    
Max Gust Speed 22 mph    
Visibility 5 miles    
Events Fog    
T = Trace of Precipitation, MM = Missing Value Source: NWS Daily Summary

Daily Weather History Graph

Daily Weather History Graph

Search for Another Location

Airport or City:

Trip Planner

Search our weather history database for the weather conditions in past years. The results will help you decide how hot, cold, wet, or windy it might be!

Date:

Astronomy

Nov. 29, 2012 Rise Set
Actual Time 7:13 AM MST 4:05 PM MST
Civil Twilight 6:39 AM MST 4:39 PM MST
Nautical Twilight 6:01 AM MST 5:17 PM MST
Astronomical Twilight 5:24 AM MST 5:54 PM MST
Moon 5:09 PM MST (11/29) 8:02 AM MST (11/29)
Length of Visible Light 10h 00m
Length of Day
8h 51m
Full, 99% of the Moon is Illuminated
Nov 29
Full
Dec 6
Last Quarter
Dec 13
New
Dec 19
First Quarter
Dec 28
Full

Hourly Weather History & Observations

Time (MST) Temp. Windchill Dew Point Humidity Pressure Visibility Wind Dir Wind Speed Gust Speed Precip Events Conditions
12:56 AM 18.0 °F 6.9 °F 15.1 °F 88% 30.04 in 5.0 mi East 9.2 mph - N/A   Overcast
1:39 AM 19.4 °F 7.2 °F 17.6 °F 93% 29.93 in 1.8 mi East 11.5 mph - N/A   Overcast
1:52 AM 19.4 °F 7.2 °F 17.6 °F 93% 29.94 in 0.5 mi ESE 11.5 mph - N/A Fog Light Freezing Fog
1:56 AM 19.0 °F 5.6 °F 18.0 °F 96% 30.02 in 0.5 mi ESE 13.8 mph - N/A Fog Light Freezing Fog
2:56 AM 19.9 °F 6.7 °F 18.0 °F 92% 30.01 in 0.5 mi East 13.8 mph - N/A Fog Light Freezing Fog
3:56 AM 21.0 °F 9.9 °F 19.0 °F 92% 30.01 in 0.2 mi East 10.4 mph - N/A Fog Light Freezing Fog
4:08 AM 21.2 °F 8.3 °F 19.4 °F 93% 29.92 in 0.5 mi ESE 13.8 mph - N/A Fog Light Freezing Fog
4:56 AM 21.0 °F 9.3 °F 19.0 °F 92% 30.01 in 0.5 mi East 11.5 mph - N/A Fog Light Freezing Fog
5:56 AM 21.0 °F 8.1 °F 19.0 °F 92% 30.02 in 0.5 mi ESE 13.8 mph - N/A Fog Light Freezing Fog
6:56 AM 21.0 °F 9.3 °F 19.0 °F 92% 30.02 in 0.8 mi ESE 11.5 mph - N/A   Mist
7:19 AM 21.2 °F 8.9 °F 19.4 °F 93% 29.91 in 1.5 mi ESE 12.7 mph - N/A   Overcast
7:56 AM 19.0 °F 5.0 °F 17.1 °F 92% 30.04 in 0.2 mi East 15.0 mph - N/A Fog Light Freezing Fog
8:56 AM 17.1 °F 3.6 °F 14.0 °F 88% 30.06 in 0.5 mi East 12.7 mph - N/A Fog Light Freezing Fog
9:17 AM 15.8 °F 0.9 °F 14.0 °F 93% 29.93 in 4.0 mi East 15.0 mph - N/A   Overcast
9:56 AM 16.0 °F 2.3 °F 14.0 °F 92% 30.06 in 7.0 mi East 12.7 mph - N/A   Overcast
10:56 AM 17.1 °F 4.3 °F 14.0 °F 88% 30.06 in 6.0 mi ESE 11.5 mph - N/A   Overcast
11:56 AM 18.0 °F 6.1 °F 15.1 °F 88% 30.04 in 6.0 mi ESE 10.4 mph - N/A   Overcast
12:56 PM 19.0 °F 7.5 °F 16.0 °F 88% 30.04 in 7.0 mi ESE 10.4 mph - N/A   Overcast
1:16 PM 19.4 °F 9.5 °F 15.8 °F 86% 29.91 in 7.0 mi ESE 8.1 mph - N/A   Overcast
1:56 PM 19.9 °F 9.3 °F 17.1 °F 89% 30.01 in 7.0 mi East 9.2 mph - N/A   Overcast
2:56 PM 19.9 °F 11.1 °F 17.1 °F 89% 30.02 in 8.0 mi ESE 6.9 mph - N/A   Overcast
3:56 PM 19.0 °F 10.0 °F 16.0 °F 88% 30.05 in 9.0 mi East 6.9 mph - N/A   Overcast
4:56 PM 19.0 °F 9.0 °F 16.0 °F 88% 30.06 in 10.0 mi East 8.1 mph - N/A   Overcast
5:56 PM 19.0 °F 10.0 °F 16.0 °F 88% 30.08 in 10.0 mi East 6.9 mph - N/A   Overcast
6:56 PM 18.0 °F 11.1 °F 15.1 °F 88% 30.07 in 10.0 mi ESE 4.6 mph - N/A   Overcast
7:44 PM 17.6 °F 8.2 °F 14.0 °F 86% 29.95 in 10.0 mi SE 6.9 mph - N/A   Scattered Clouds
7:56 PM 18.0 °F 7.7 °F 15.1 °F 88% 30.07 in 10.0 mi SE 8.1 mph - N/A   Clear
8:56 PM 16.0 °F 5.3 °F 12.9 °F 88% 30.07 in 10.0 mi SSE 8.1 mph - N/A   Clear
9:56 PM 16.0 °F 5.3 °F 12.0 °F 84% 30.07 in 9.0 mi SSE 8.1 mph - N/A   Clear
10:28 PM 15.8 °F 4.2 °F 12.2 °F 86% 29.94 in 8.0 mi South 9.2 mph - N/A   Partly Cloudy
10:41 PM 15.8 °F 3.4 °F 12.2 °F 86% 29.94 in 7.0 mi SSE 10.4 mph - N/A   Mostly Cloudy
10:56 PM 17.1 °F 5.0 °F 15.1 °F 92% 30.07 in 6.0 mi South 10.4 mph - N/A   Overcast
11:56 PM 18.0 °F 7.7 °F 16.0 °F 92% 30.06 in 6.0 mi SE 8.1 mph - N/A   Scattered Clouds